When you browse on this site, cookies collect data to enhance your experience and personalize the content and advertising you see.
Visit our Privacy Policy to learn more. By continuing to use the site, you agree to this use of cookies and data.
  • In Lithuania
  • List of Countries
  • For 7 days
  • Water Temperature
  • Weather Map
  • Weather Widgets
  • user-avatar
    Login

    Hourly Weather Dahab

    Today, 1 June, Monday

    Time Temperature Precipitation Wind Pressure Humidity
    00:00 +25°C° 0 mm 4 mps 712 mmHg 27%
    01:00 +25°C° 0 mm 4 mps 712 mmHg 24%
    02:00 +23°C° 0 mm 4 mps 711 mmHg 22%
    03:00 +23°C° 0 mm 4 mps 711 mmHg 20%
    04:00 +23°C° 0 mm 4 mps 711 mmHg 17%
    05:00 +22°C° 0 mm 4 mps 712 mmHg 14%
    06:00 +25°C° 0 mm 4 mps 712 mmHg 15%
    07:00 +27°C° 0 mm 5 mps 712 mmHg 15%
    08:00 +29°C° 0 mm 5 mps 712 mmHg 16%
    09:00 +32°C° 0 mm 6 mps 712 mmHg 16%
    10:00 +33°C° 0 mm 6 mps 712 mmHg 16%
    11:00 +35°C° 0 mm 7 mps 712 mmHg 15%
    12:00 +35°C° 0 mm 7 mps 712 mmHg 15%
    13:00 +36°C° 0 mm 7 mps 711 mmHg 15%
    14:00 +36°C° 0 mm 6 mps 711 mmHg 15%
    15:00 +36°C° 0 mm 6 mps 711 mmHg 15%
    16:00 +35°C° 0 mm 6 mps 711 mmHg 15%
    17:00 +35°C° 0 mm 6 mps 711 mmHg 15%
    18:00 +33°C° 0 mm 5 mps 711 mmHg 17%
    19:00 +30°C° 0 mm 4 mps 711 mmHg 19%
    20:00 +29°C° 0 mm 3 mps 711 mmHg 21%
    21:00 +28°C° 0 mm 3 mps 711 mmHg 22%
    22:00 +28°C° 0 mm 2 mps 711 mmHg 22%
    23:00 +27°C° 0 mm 2 mps 711 mmHg 22%

    Tomorrow, 2 June, Tuesday

    Time Temperature Precipitation Wind Pressure Humidity
    00:00 +27°C° 0 mm 2 mps 710 mmHg 24%
    01:00 +26°C° 0 mm 2 mps 710 mmHg 25%
    02:00 +26°C° 0 mm 2 mps 709 mmHg 27%
    03:00 +26°C° 0 mm 1 mps 709 mmHg 28%
    04:00 +25°C° 0 mm 1 mps 709 mmHg 29%
    05:00 +25°C° 0 mm 1 mps 709 mmHg 31%
    06:00 +28°C° 0 mm 1 mps 710 mmHg 27%
    07:00 +30°C° 0 mm 2 mps 710 mmHg 24%
    08:00 +33°C° 0 mm 3 mps 710 mmHg 21%
    09:00 +34°C° 0 mm 3 mps 711 mmHg 19%
    10:00 +35°C° 0 mm 4 mps 711 mmHg 18%
    11:00 +36°C° 0 mm 4 mps 711 mmHg 17%
    12:00 +37°C° 0 mm 5 mps 710 mmHg 16%
    13:00 +38°C° 0 mm 6 mps 710 mmHg 16%
    14:00 +39°C° 0 mm 6 mps 710 mmHg 15%
    15:00 +38°C° 0 mm 6 mps 709 mmHg 16%
    16:00 +36°C° 0 mm 5 mps 709 mmHg 17%
    17:00 +35°C° 0 mm 4 mps 709 mmHg 18%
    18:00 +34°C° 0 mm 4 mps 709 mmHg 19%
    19:00 +32°C° 0 mm 4 mps 710 mmHg 21%
    20:00 +30°C° 0 mm 3 mps 710 mmHg 22%
    21:00 +29°C° 0 mm 3 mps 710 mmHg 23%
    22:00 +28°C° 0 mm 4 mps 710 mmHg 24%
    23:00 +27°C° 0 mm 4 mps 711 mmHg 25%

    Day after tomorrow, 3 June, Wednesday

    Time Temperature Precipitation Wind Pressure Humidity
    00:00 +26°C° 0 mm 4 mps 710 mmHg 26%
    01:00 +25°C° 0 mm 4 mps 710 mmHg 28%
    02:00 +23°C° 0 mm 4 mps 710 mmHg 30%
    03:00 +23°C° 0 mm 4 mps 710 mmHg 31%
    04:00 +23°C° 0 mm 4 mps 710 mmHg 33%
    05:00 +22°C° 0 mm 4 mps 710 mmHg 34%
    06:00 +25°C° 0 mm 4 mps 711 mmHg 31%
    07:00 +27°C° 0 mm 4 mps 711 mmHg 28%
    08:00 +29°C° 0 mm 4 mps 711 mmHg 24%
    09:00 +30°C° 0 mm 4 mps 711 mmHg 23%
    10:00 +32°C° 0 mm 4 mps 711 mmHg 22%
    11:00 +34°C° 0 mm 5 mps 711 mmHg 20%
    12:00 +34°C° 0 mm 5 mps 711 mmHg 19%
    13:00 +35°C° 0 mm 5 mps 711 mmHg 18%
    14:00 +36°C° 0 mm 5 mps 710 mmHg 16%
    15:00 +35°C° 0 mm 4 mps 710 mmHg 16%
    16:00 +35°C° 0 mm 4 mps 710 mmHg 16%
    17:00 +35°C° 0 mm 3 mps 710 mmHg 16%
    18:00 +33°C° 0 mm 3 mps 710 mmHg 17%
    19:00 +30°C° 0 mm 3 mps 710 mmHg 19%
    20:00 +29°C° 0 mm 2 mps 710 mmHg 21%
    21:00 +28°C° 0 mm 3 mps 711 mmHg 21%
    22:00 +27°C° 0 mm 3 mps 711 mmHg 22%
    23:00 +27°C° 0 mm 3 mps 711 mmHg 23%

    4 June, Thursday

    Time Temperature Precipitation Wind Pressure Humidity
    00:00 +26°C° 0 mm 3 mps 711 mmHg 23%
    01:00 +26°C° 0 mm 3 mps 711 mmHg 23%
    02:00 +26°C° 0 mm 3 mps 710 mmHg 24%
    03:00 +25°C° 0 mm 3 mps 710 mmHg 24%
    04:00 +25°C° 0 mm 3 mps 710 mmHg 24%
    05:00 +25°C° 0 mm 3 mps 710 mmHg 25%
    06:00 +27°C° 0 mm 3 mps 711 mmHg 23%
    07:00 +30°C° 0 mm 3 mps 711 mmHg 21%
    08:00 +33°C° 0 mm 4 mps 712 mmHg 19%
    09:00 +34°C° 0 mm 4 mps 712 mmHg 18%
    10:00 +35°C° 0 mm 4 mps 712 mmHg 17%
    11:00 +36°C° 0 mm 4 mps 712 mmHg 17%
    12:00 +37°C° 0 mm 4 mps 712 mmHg 16%
    13:00 +37°C° 0 mm 3 mps 711 mmHg 15%
    14:00 +38°C° 0 mm 3 mps 711 mmHg 14%
    15:00 +37°C° 0 mm 3 mps 711 mmHg 15%
    16:00 +37°C° 0 mm 3 mps 711 mmHg 15%
    17:00 +37°C° 0 mm 3 mps 711 mmHg 16%
    18:00 +35°C° 0 mm 3 mps 711 mmHg 18%
    19:00 +33°C° 0 mm 3 mps 711 mmHg 20%
    20:00 +30°C° 0 mm 2 mps 711 mmHg 22%
    21:00 +30°C° 0 mm 3 mps 712 mmHg 23%
    22:00 +29°C° 0 mm 3 mps 712 mmHg 24%
    23:00 +29°C° 0 mm 3 mps 712 mmHg 26%

    5 June, Friday

    Time Temperature Precipitation Wind Pressure Humidity
    00:00 +28°C° 0 mm 3 mps 712 mmHg 27%
    01:00 +28°C° 0 mm 3 mps 711 mmHg 27%
    02:00 +27°C° 0 mm 3 mps 711 mmHg 28%
    03:00 +27°C° 0 mm 3 mps 711 mmHg 29%
    04:00 +26°C° 0 mm 3 mps 711 mmHg 29%
    05:00 +26°C° 0 mm 3 mps 711 mmHg 29%
    06:00 +28°C° 0 mm 3 mps 712 mmHg 26%
    07:00 +31°C° 0 mm 3 mps 712 mmHg 23%
    08:00 +34°C° 0 mm 4 mps 713 mmHg 20%
    09:00 +35°C° 0 mm 4 mps 713 mmHg 20%
    10:00 +36°C° 0 mm 4 mps 713 mmHg 19%
    11:00 +37°C° 0 mm 4 mps 713 mmHg 19%
    12:00 +37°C° 0 mm 4 mps 712 mmHg 18%
    13:00 +38°C° 0 mm 3 mps 712 mmHg 17%
    14:00 +38°C° 0 mm 3 mps 712 mmHg 16%
    15:00 +38°C° 0 mm 3 mps 711 mmHg 16%
    16:00 +38°C° 0 mm 2 mps 711 mmHg 15%
    17:00 +38°C° 0 mm 2 mps 711 mmHg 15%
    18:00 +35°C° 0 mm 2 mps 711 mmHg 18%
    19:00 +32°C° 0 mm 1 mps 711 mmHg 21%
    20:00 +30°C° 0 mm 1 mps 712 mmHg 24%
    21:00 +30°C° 0 mm 2 mps 712 mmHg 25%
    22:00 +29°C° 0 mm 2 mps 712 mmHg 27%
    23:00 +29°C° 0 mm 3 mps 712 mmHg 28%

    6 June, Saturday

    Time Temperature Precipitation Wind Pressure Humidity
    00:00 +28°C° 0 mm 3 mps 712 mmHg 29%
    01:00 +28°C° 0 mm 3 mps 712 mmHg 29%
    02:00 +27°C° 0 mm 3 mps 711 mmHg 30%
    03:00 +27°C° 0 mm 3 mps 711 mmHg 31%
    04:00 +27°C° 0 mm 3 mps 711 mmHg 31%
    05:00 +26°C° 0 mm 3 mps 711 mmHg 32%
    06:00 +29°C° 0 mm 3 mps 712 mmHg 28%
    07:00 +31°C° 0 mm 3 mps 712 mmHg 24%
    08:00 +34°C° 0 mm 3 mps 713 mmHg 20%
    09:00 +36°C° 0 mm 4 mps 712 mmHg 19%
    10:00 +37°C° 0 mm 4 mps 712 mmHg 18%
    11:00 +38°C° 0 mm 4 mps 712 mmHg 16%
    12:00 +40°C° 0 mm 4 mps 712 mmHg 15%
    13:00 +40°C° 0 mm 4 mps 711 mmHg 14%
    14:00 +41°C° 0 mm 5 mps 711 mmHg 13%
    15:00 +40°C° 0 mm 4 mps 710 mmHg 13%
    16:00 +40°C° 0 mm 4 mps 710 mmHg 13%
    17:00 +40°C° 0 mm 4 mps 710 mmHg 13%
    18:00 +37°C° 0 mm 3 mps 710 mmHg 15%
    19:00 +34°C° 0 mm 3 mps 710 mmHg 18%
    20:00 +31°C° 0 mm 2 mps 710 mmHg 21%
    21:00 +30°C° 0 mm 2 mps 710 mmHg 21%
    22:00 +30°C° 0 mm 2 mps 711 mmHg 22%
    23:00 +29°C° 0 mm 2 mps 711 mmHg 23%
    Show more